Terminal Aerodrome Forecast
Issued by NWS

Home | Current Version | Previous Version | Text Only | Print | Product List | Glossary On
Versions: 1 2 3 4 5 6 7 8 9 10 11 12 13 14 15 16 17 18
000
FTUS41 KBTV 210355 AAA
TAFSLK
TAF AMD
KSLK 210355Z 2104/2124 00000KT 4SM BR FEW200
      TEMPO 2106/2110 2SM BR
     FM211200 23005KT P6SM FEW200
     FM211700 24011G20KT P6SM FEW250
     FM212300 24007KT P6SM FEW250=

USA.gov is the U.S. government's official web portal to all federal, state and local government web resources and services.